Location: Aulus
(42.7909°N, 1.3399°E)
Time: 21:42:35
(UTC+00:00)

Cosmos 44 - Pass Details

Date: 19 May 2025
Orbit: 588 x 763 km, 65.1° (Epoch: 18 June)

Event Time Altitude Azimuth Distance (km) Brightness Sun altitude
Rises 21:16:46 0° 327° (NNW) 2,913 8.2 -17.9°
Reaches altitude 10° 21:19:00 10° 329° (NNW) 2,027 7.0 -18.1°
Maximum altitude 21:23:35 77° 55° (NE) 681 3.2 -18.6°
Enters shadow 21:25:18 40° 134° (SE) 990 3.6 -18.8°
